Location: *
(28.3744°N, 81.5492°W)
Time: 03:39:32
(UTC+00:00)

CARTOSAT-1 - Pass Details

Date: 15 June 2025
Orbit: 597 x 600 km, 97.6° (Epoch: 11 July)

Event Time Altitude Azimuth Distance (km) Brightness Sun altitude
Rises 00:46:18 0° 165° (SSE) 2,832 6.5 -5.0°
Reaches altitude 10° 00:48:27 10° 164° (SSE) 1,933 5.7 -5.4°
Maximum altitude 00:52:39 80° 79° (E) 614 3.5 -6.2°
Drops below altitude 10° 00:56:52 10° 351° (N) 1,943 6.7 -7.0°
Sets 00:59:03 0° 351° (N) 2,848 7.6 -7.4°
